Regional Weather Roundup
Issued by NWS New Orleans/Baton Rouge, LA

Home | Current Version | Previous Version | Text Only | Print | Product List | Glossary On
Versions: 1 2 3 4 5 6 7 8 9 10 11 12 13 14 15 16 17 18 19 20 21 22 23 24 25 26 27 28 29 30 31 32 33 34 35 36 37 38 39 40 41 42 43 44 45 46 47 48 49 50
173
ASUS44 KLIX 302311
RWRLIX
NEW ORLEANS REGIONAL WEATHER ROUNDUP
NATIONAL WEATHER SERVICE NEW ORLEANS LA
600 PM CDT SAT APR 30 2016

NOTE: "FAIR" INDICATES FEW OR NO CLOUDS BELOW 12,000 FEET WITH NO
      SIGNIFICANT WEATHER AND/OR OBSTRUCTIONS TO VISIBILITY.
      SKY/WX - SKY CONDITION AND SIGNIFICANT WEATHER.
      TMP - AIR TEMPERATURE.     DP    - DEWPOINT TEMPERATURE.
      RH  - RELATIVE HUMIDITY.   PRES  - PRESSURE.
      HI  - HEAT INDEX.          WCI   - WIND CHILL INDEX.

*  THESE STATIONS ARE NOT NWS OR FAA STATIONS AND ARE NOT UNDER
   NWS QUALITY CONTROL.

LAZ038-040-048-061>063-065>067-069-010000-
SOUTHEAST LOUISIANA

CITY           SKY/WX    TMP DP  RH WIND       PRES   REMARKS
N.O. AUDUBON   NOT AVBL
N.O. INTL ARPT LGT RAIN  71  66  84 SE22G33   29.78F
N.O. LAKEFRONT LGT RAIN  67  66  97 SE18G29   29.82F FOG
N.O. DOWNTOWN* CLOUDY    71  68  90 S9G21     29.83F
RESERVE*         N/A     74  68  80 SE10      29.80R
SLIDELL        LGT RAIN  68  66  93 E16G22    29.79F
BATON ROUGE    CLOUDY    75  67  76 SE13      29.78R
BOOTHVILLE     LGT RAIN  75  73  93 CALM      29.89R FOG
BELLE CHASSE   TSTM      70  68  93 SE13      29.84F FOG
BOGALUSA*        N/A     69  64  81 SE6       29.82S
GALLIANO*      LGT RAIN  68  65  92 E3        29.85F
NEW ROADS*     MOCLDY    74  69  82 SE14      29.77S
GONZALES*      MOCLDY    74  67  80 S5        29.79R
HAMMOND*       CLOUDY    72  66  83 SE8       29.83R
HOUMA*         LGT RAIN  70  68  94 SE17G23   29.77F
PORT FOURCHON* MOCLDY    75  70  83 CALM      29.88R HAZE

$$

MSZ070-080>082-010000-
SOUTHERN MISSISSIPPI

CITY           SKY/WX    TMP DP  RH WIND       PRES   REMARKS
MCCOMB         CLOUDY    71  67  87 SE14      29.79S
GULFPORT       RAIN      69  67  93 NW13      29.91R FOG
BILOXI         TSTM      75  75 100 VRB5      29.90R
PASCAGOULA     CLOUDY    76  73  91 SE7       29.89F
STENNIS ARPT*  TSTM      66  63  88 SE8       29.90R

$$

COASTAL OBSERVATIONS
LAKE AND NEARSHORE STATIONS

STATION/POSITION TIME  TEMP    WIND        PRES    WAVE
                       AIR SEA DIR/SP/G            HT/PER
                 (UTC) (F)     (DEG/KT/KT) (MB)    (FT/S)
PASCAGOULA       2200   78                 1011.9
WAVELAND YACHT   2200   76 75              1011.6
GRAND ISLE       2200   76 77              1009.9
SOUTHWEST PASS   2200           60/ 10/ 11   N/A
NEW CANAL        2200   69 75              1009.0
SHELL BEACH      2200   76 77              1013.3

OFFSHORE STATIONS

STATION/POSITION TIME  TEMP    WIND        PRES    WAVE
                       AIR SEA DIR/SP/G            HT/PER
                 (UTC) (F)     (DEG/KT/KT) (MB)    (FT/S)
64 S DAUPHIN ISL 2200   76 74  130/ 10/ 12 1011.0

$$





USA.gov is the U.S. government's official web portal to all federal, state and local government web resources and services.